TimeEDT,TemperatureF,Dew PointF,Humidity,Sea Level PressureIn,VisibilityMPH,Wind Direction,Wind SpeedMPH,Gust SpeedMPH,PrecipitationIn,Events,Conditions,WindDirDegrees,DateUTC
12:54 AM,64.0,63.0,96,30.01,9.0,SSW,3.5,-,N/A,,Clear,210,2013-08-30 04:54:00
1:54 AM,66.0,64.0,93,30.01,7.0,Calm,Calm,-,N/A,Fog,Shallow Fog,0,2013-08-30 05:54:00
2:54 AM,66.0,64.0,93,29.99,7.0,SW,4.6,-,N/A,,Partly Cloudy,220,2013-08-30 06:54:00
3:54 AM,64.9,64.0,97,29.99,6.0,WSW,5.8,-,N/A,,Scattered Clouds,240,2013-08-30 07:54:00
4:54 AM,64.9,63.0,93,29.99,7.0,SW,4.6,-,N/A,,Partly Cloudy,230,2013-08-30 08:54:00
5:54 AM,64.9,63.0,93,29.99,7.0,SW,4.6,-,N/A,,Scattered Clouds,230,2013-08-30 09:54:00
6:54 AM,64.9,63.0,93,29.98,6.0,SW,4.6,-,N/A,,Scattered Clouds,220,2013-08-30 10:54:00
7:54 AM,66.9,64.9,93,29.99,8.0,SW,4.6,-,N/A,,Mostly Cloudy,220,2013-08-30 11:54:00
8:54 AM,69.1,64.9,87,29.99,10.0,SSW,5.8,-,N/A,,Mostly Cloudy,210,2013-08-30 12:54:00
9:54 AM,73.0,66.0,79,29.97,10.0,SSW,6.9,-,N/A,,Mostly Cloudy,200,2013-08-30 13:54:00
10:54 AM,78.1,66.0,66,29.95,10.0,SW,8.1,-,N/A,,Mostly Cloudy,220,2013-08-30 14:54:00
11:54 AM,81.0,66.9,62,29.93,10.0,Variable,4.6,-,N/A,,Mostly Cloudy,0,2013-08-30 15:54:00
12:54 PM,82.9,66.9,58,29.91,10.0,SW,3.5,-,N/A,,Overcast,230,2013-08-30 16:54:00
1:54 PM,84.0,64.9,53,29.90,10.0,West,8.1,-,N/A,,Overcast,270,2013-08-30 17:54:00
2:54 PM,82.0,68.0,62,29.88,10.0,Variable,4.6,-,N/A,,Overcast,0,2013-08-30 18:54:00
3:54 PM,86.0,68.0,55,29.86,10.0,Variable,6.9,-,N/A,,Mostly Cloudy,0,2013-08-30 19:54:00
4:54 PM,84.0,68.0,58,29.83,10.0,Variable,6.9,-,N/A,,Mostly Cloudy,0,2013-08-30 20:54:00
5:54 PM,82.9,66.9,58,29.81,10.0,West,8.1,-,N/A,,Mostly Cloudy,260,2013-08-30 21:54:00
6:54 PM,79.0,68.0,69,29.81,10.0,WSW,5.8,-,N/A,,Mostly Cloudy,240,2013-08-30 22:54:00
7:54 PM,78.1,66.9,68,29.81,10.0,West,3.5,-,N/A,,Mostly Cloudy,270,2013-08-30 23:54:00
8:54 PM,77.0,66.0,69,29.81,10.0,WSW,3.5,-,N/A,,Overcast,250,2013-08-31 00:54:00
9:54 PM,75.9,66.9,74,29.79,10.0,Calm,Calm,-,N/A,,Overcast,0,2013-08-31 01:54:00
10:54 PM,75.0,66.9,76,29.78,10.0,Calm,Calm,-,N/A,,Overcast,0,2013-08-31 02:54:00
11:54 PM,73.9,68.0,82,29.77,10.0,Calm,Calm,-,N/A,,Overcast,0,2013-08-31 03:54:00